Weather Service Report


694 
ASUS42 KFFC 030003
RWRGA 
WEATHER ROUNDUP FOR GEORGIA
NATIONAL WEATHER SERVICE PEACHTREE CITY GA
800 PM EDT THU JUL 02 2015

NOTE: "FAIR" INDICATES FEW OR NO CLOUDS BELOW 12,000 FEET WITH NO
SIGNIFICANT WEATHER AND/OR OBSTRUCTIONS TO VISIBILITY. 

* = USE WITH CAUTION. THE STATIONS MARKED WITH AN ASTERISK MAY NOT
REPORT WEATHER SUCH AS PRECIPITATION, FOG, OR THUNDER AND ARE NOT 
QUALITY CONTROLLED BY NWS.

THE REMARK "TC" DENOTES TEMPERATURE READING IN DEGREES CELSIUS.

GAZ001>058-030100-
NORTH GEORGIA
  
CITY           SKY/WX    TMP DP  RH WIND       PRES   REMARKS
ATLANTA        MOCLDY    82  67  60 W8        29.98R                  
6HR MIN TEMP:  76; 6HR MAX TEMP:  87; 6HR PCP:  0.14;                

ATHENS         CLOUDY    70  68  93 CALM      29.97S                  
6HR MIN TEMP:  67; 6HR MAX TEMP:  83; 6HR PCP:  1.42;                

CHAMBLEE       MOCLDY    82  68  62 W10       29.97S                  
6HR MIN TEMP:  76; 6HR MAX TEMP:  88;                                

PEACHTREE CITY MOCLDY    82  70  66 CALM      29.99S                  
6HR MIN TEMP:  82; 6HR MAX TEMP:  88;                                

ROME           MOCLDY    82  66  58 W6        29.92F                  
6HR MIN TEMP:  74; 6HR MAX TEMP:  84; 6HR PCP:  0.02;                

WEST ATLANTA   MOCLDY    83  67  58 SW9       29.97R                  
6HR MIN TEMP:  83; 6HR MAX TEMP:  88; 6HR PCP: TRACE;                

GAINESVILLE    MOCLDY    73  67  81 MISG      29.99S                  
6HR MIN TEMP:  68; 6HR MAX TEMP:  84; 6HR PCP:  0.24;                

CARTERSVILLE   MOCLDY    78  70  76 S3        29.95S                  
6HR MIN TEMP:  71; 6HR MAX TEMP:  85; 6HR PCP:  0.07;                


  
CITY           SKY/WX    TMP DP  RH WIND       PRES   REMARKS
DALTON*        CLOUDY    72  70  94 CALM      29.93S                  
LAWRENCEVILLE* CLEAR     75  66  73 CALM      29.96S                  
KENNESAW*      MOCLDY   N/A N/A N/A W16       29.98R                  
BLAIRSVILLE*   LGT RAIN  72  62  69 CALM      30.00S                  
$$

GAZ059>098-102>109-030100-
CENTRAL GEORGIA
  
CITY           SKY/WX    TMP DP  RH WIND       PRES   REMARKS
AUGUSTA-BUSH   RAIN      71  69  93 S10       29.99R FOG              
6HR MIN TEMP:  71; 6HR MAX TEMP:  94; 6HR PCP:  0.90;                

AUGUSTA-DANIEL LGT RAIN  72  70  93 S8        30.00R                  
6HR MIN TEMP:  71; 6HR MAX TEMP:  94; 6HR PCP:  0.64;                

COLUMBUS       MOCLDY    80  73  79 SW9       29.99S                  
6HR MIN TEMP:  74; 6HR MAX TEMP:  88; 6HR PCP:  0.13;                

MACON          CLOUDY    74  70  87 SW5       30.00R                  
6HR MIN TEMP:  71; 6HR MAX TEMP:  92; 6HR PCP:  0.14;                

ROBINS AFB     CLOUDY    75  71  87 SW8       30.00R                  

  
CITY           SKY/WX    TMP DP  RH WIND       PRES   REMARKS
LAGRANGE*      MOCLDY    85  78  81 W3        29.99S HX  97           
SYLVANIA*      TSTM      73  72  96 N7        30.07R                  
MILLEDGEVILLE* CLOUDY    73  70  88 CALM      30.00S                  
$$

GAZ099>101-110>166-030100-
SOUTH GEORGIA
  
CITY           SKY/WX    TMP DP  RH WIND       PRES   REMARKS
SAVANNAH       LGT RAIN  73  67  81 W18G24    30.00R                  
6HR MIN TEMP:  73; 6HR MAX TEMP:  93; 6HR PCP: TRACE;                

VALDOSTA       CLOUDY    76  70  82 SW3       30.05F                  
6HR MIN TEMP:  76; 6HR MAX TEMP:  87; 6HR PCP: TRACE;                

ALMA           CLOUDY    73  71  93 CALM      30.03F                  
6HR MIN TEMP:  72; 6HR MAX TEMP:  91; 6HR PCP:  0.53;                

ST SIMONS      RAIN      73  72  96 W8        30.06F FOG              
6HR MIN TEMP:  73; 6HR MAX TEMP:  93; 6HR PCP:  0.18;                

FT STEWART     RAIN      73  70  90 SW8       30.01F                  
ALBANY         CLOUDY    74  71  91 SW5       30.05S                  
HUNTER AFB     CLOUDY    75  70  84 W21G29    30.00R                  
BRUNSWICK      CLOUDY    73  72  94 W5        30.07F                  

  
CITY           SKY/WX    TMP DP  RH WIND       PRES   REMARKS
BAINBRIDGE*    CLOUDY    79  77  94 SW5       30.04S                  
MOULTRIE*      DRIZZLE   73  72  94 CALM      30.05S                  
VIDALIA*       CLOUDY    72  70  94 SW7       30.04R                  
WAYCROSS*      LGT RAIN  75  74  96 CALM      30.03F                  
DOUGLAS*       CLOUDY    73  72  94 CALM      30.05S                  
$$

Return to Home page


Western Regional Climate Center, wrcc@dri.edu